GW2897 Weather Reports


Display with metric or nautical units.
time (UTC)temp
F
wind
direction
speed
MPH
gust
MPH
rain 1hr
in
rain 24hr
in
rain mn
in
humidity
%
barometer
mb
20260506170903 76 124 3.0 9.0 0.00 0.00 0.00 73 1015.0
20260506170004 74 249 3.0 9.0 0.00 0.00 0.00 76 1015.3
20260506165404 74 224 3.0 9.0 0.00 0.00 0.00 77 1015.2
20260506164505 73 155 2.0 7.0 0.00 0.00 0.00 79 1015.0
20260506163603 72 254 2.0 8.0 0.00 0.00 0.00 79 1015.3
20260506162703 72 135 2.0 6.0 0.00 0.00 0.00 81 1015.2
20260506161817 71 239 2.0 6.0 0.00 0.00 0.00 81 1015.4
20260506160903 71 265 2.0 8.0 0.00 0.00 0.00 81 1015.6
20260506160006 70 259 3.0 8.0 0.00 0.00 0.00 82 1015.5
20260506155404 70 251 2.0 6.0 0.00 0.00 0.00 82 1015.4
20260506154524 69 186 1.0 3.0 0.00 0.00 0.00 83 1015.5
20260506153603 69 236 2.0 6.0 0.00 0.00 0.00 83 1015.4
20260506152704 69 190 2.0 5.0 0.00 0.00 0.00 82 1015.3
20260506151804 68 241 2.0 5.0 0.00 0.00 0.00 82 1015.2
20260506150903 68 166 1.0 5.0 0.00 0.00 0.00 83 1015.0
20260506150005 68 218 2.0 7.0 0.00 0.00 0.00 83 1015.0
20260506145405 68 202 1.0 7.0 0.00 0.00 0.00 83 1015.0
20260506144503 68 133 2.0 8.0 0.00 0.00 0.00 83 1014.7
20260506143603 67 256 2.0 7.0 0.00 0.00 0.00 83 1014.7
20260506142703 68 213 2.0 7.0 0.00 0.00 0.00 82 1014.6
20260506141804 67 123 2.0 8.0 0.00 0.00 0.00 83 1014.5
20260506140925 67 191 2.0 8.0 0.00 0.00 0.00 83 1014.7
20260506140003 66 173 1.0 6.0 0.00 0.00 0.00 84 1014.7
20260506135427 66 251 1.0 5.0 0.00 0.00 0.00 84 1014.8
20260506134504 65 122 1.0 4.0 0.00 0.00 0.00 85 1014.9
20260506133603 65 221 1.0 5.0 0.00 0.00 0.00 85 1014.9
20260506132721 65 211 1.0 4.0 0.00 0.00 0.00 85 1014.9
20260506131804 64 248 1.0 6.0 0.00 0.00 0.00 85 1014.8
20260506130904 64 111 1.0 5.0 0.00 0.00 0.00 86 1014.6
20260506130005 63 247 1.0 5.0 0.00 0.00 0.00 86 1014.8
20260506125443 63 257 0.0 4.0 0.00 0.00 0.00 87 1014.6
20260506124505 62 167 1.0 3.0 0.00 0.00 0.00 87 1014.5
20260506123603 62 260 1.0 4.0 0.00 0.00 0.00 87 1014.6
20260506122724 62 272 0.0 3.0 0.00 0.00 0.00 87 1014.6
20260506121804 62 188 1.0 6.0 0.00 0.00 0.00 87 1014.6
20260506120903 62 132 2.0 5.0 0.00 0.00 0.00 86 1014.3
20260506120005 62 128 1.0 6.0 0.00 0.00 0.00 86 1014.4
20260506115424 62 173 1.0 6.0 0.00 0.00 0.00 86 1014.4
20260506114503 62 176 1.0 5.0 0.00 0.00 0.00 86 1014.4
20260506113604 62 168 1.0 5.0 0.00 0.00 0.00 86 1014.2
20260506112712 62 149 0.0 2.0 0.00 0.00 0.00 86 1014.0
20260506111803 62 314 0.0 2.0 0.00 0.00 0.00 86 1013.9
20260506110904 61 98 1.0 5.0 0.00 0.00 0.00 86 1013.7
20260506110005 61 136 1.0 5.0 0.00 0.00 0.00 86 1013.3
20260506105405 61 179 0.0 3.0 0.00 0.00 0.00 86 1013.2
20260506104503 62 152 1.0 5.0 0.00 0.00 0.00 85 1013.0
20260506103603 62 162 1.0 5.0 0.00 0.00 0.00 85 1013.0
20260506102708 61 271 1.0 6.0 0.00 0.00 0.00 86 1013.2
20260506101830 61 243 0.0 3.0 0.00 0.00 0.00 85 1013.2
20260506100903 61 148 1.0 4.0 0.00 0.00 0.00 85 1013.1
20260506100004 61 145 1.0 4.0 0.00 0.00 0.00 85 1013.0
20260506095404 61 159 1.0 5.0 0.00 0.00 0.00 85 1013.2
20260506094505 61 127 1.0 6.0 0.00 0.00 0.00 85 1013.1
20260506093625 62 145 1.0 6.0 0.00 0.00 0.00 84 1013.1
20260506092738 62 133 1.0 3.0 0.00 0.00 0.00 84 1013.2
20260506091803 62 113 1.0 5.0 0.00 0.00 0.00 84 1013.2
20260506090903 62 143 1.0 4.0 0.00 0.00 0.00 84 1013.5
20260506090004 62 178 1.0 4.0 0.00 0.00 0.00 83 1013.7
20260506085403 62 140 1.0 5.0 0.00 0.00 0.00 83 1013.7
20260506084525 63 152 2.0 6.0 0.00 0.00 0.00 82 1013.8
20260506083604 63 152 2.0 5.0 0.00 0.00 0.00 82 1013.7
20260506082716 63 159 1.0 5.0 0.00 0.00 0.00 82 1013.7
20260506081803 63 124 1.0 5.0 0.00 0.00 0.00 81 1013.7
20260506080903 64 144 1.0 5.0 0.00 0.00 0.00 81 1013.9
20260506072703 64 159 1.0 4.0 0.00 0.00 0.00 79 1014.1
20260506071824 64 123 1.0 4.0 0.00 0.00 0.00 79 1014.1
20260506070903 64 121 2.0 7.0 0.00 0.00 0.00 79 1014.0
20260506061803 64 134 3.0 9.0 0.00 0.00 0.00 78 1013.8
20260506060903 65 161 2.0 8.0 0.00 0.00 0.00 77 1013.7
20260506050924 66 111 2.0 7.0 0.00 0.00 0.00 77 1014.3
20260506044503 66 147 3.0 10.0 0.00 0.00 0.00 77 1014.2
20260506043611 66 136 1.0 8.0 0.00 0.00 0.00 78 1014.2
20260506042703 66 118 1.0 6.0 0.00 0.00 0.00 78 1014.1
20260506041824 66 126 1.0 6.0 0.00 0.00 0.00 77 1014.3
20260506040931 67 137 2.0 5.0 0.00 0.00 0.00 76 1014.2
20260506040025 67 128 1.0 7.0 0.00 0.00 0.00 76 1014.1
20260506035404 67 133 1.0 7.0 0.00 0.00 0.00 76 1014.0
20260506034503 67 117 1.0 6.0 0.00 0.00 0.00 75 1014.2
20260506033628 67 127 1.0 6.0 0.00 0.00 0.00 74 1014.2
20260506032703 68 125 1.0 5.0 0.00 0.00 0.00 72 1014.2
20260506031805 68 124 2.0 6.0 0.00 0.00 0.00 71 1014.1
20260506030904 68 122 2.0 9.0 0.00 0.00 0.00 71 1014.1
20260506030004 68 128 2.0 9.0 0.00 0.00 0.00 69 1014.0
20260506025405 69 133 2.0 7.0 0.00 0.00 0.00 68 1014.0
20260506024525 69 111 3.0 10.0 0.00 0.00 0.00 67 1013.9
20260506023657 69 113 2.0 10.0 0.00 0.00 0.00 65 1013.8
20260506022726 69 107 0.0 2.0 0.00 0.00 0.00 65 1013.5
20260506021825 69 166 0.0 3.0 0.00 0.00 0.00 63 1013.4
20260506020933 69 124 0.0 1.0 0.00 0.00 0.00 64 1013.4
20260506020004 69 119 0.0 1.0 0.00 0.00 0.00 65 1013.5
20260506015404 69 115 0.0 2.0 0.00 0.00 0.00 65 1013.6
20260506014505 69 130 0.0 1.0 0.00 0.00 0.00 63 1013.7
20260506013618 68 128 0.0 2.0 0.00 0.00 0.00 65 1013.7
20260506012704 67 0 0.0 0.0 0.00 0.00 0.00 66 1013.8
20260506011804 67 0 0.0 0.0 0.00 0.00 0.00 67 1013.7
20260506010920 68 0 0.0 0.0 0.00 0.00 0.00 67 1013.7
20260506010005 68 0 0.0 0.0 0.00 0.00 0.00 64 1013.5
20260506005404 69 0 0.0 0.0 0.00 0.00 0.00 64 1013.6
20260506004505 70 0 0.0 0.0 0.00 0.00 0.00 62 1013.4
20260506003604 71 136 0.0 1.0 0.00 0.00 0.00 61 1013.2
20260506002704 72 138 0.0 1.0 0.00 0.00 0.00 56 1013.2
20260506001804 73 128 0.0 1.0 0.00 0.00 0.00 54 1013.1
20260506000934 75 132 0.0 1.0 0.00 0.00 0.00 52 1012.9
20260506000004 76 211 1.0 4.0 0.00 0.00 0.00 49 1012.8
20260505235405 77 180 1.0 4.0 0.00 0.00 0.00 48 1012.7
20260505234504 79 161 0.0 3.0 0.00 0.00 0.00 47 1012.7
20260505233604 80 141 1.0 7.0 0.00 0.00 0.00 46 1012.7
20260505232726 80 150 2.0 8.0 0.00 0.00 0.00 45 1012.7
20260505231804 81 135 2.0 8.0 0.00 0.00 0.00 44 1013.0
20260505230910 82 148 1.0 8.0 0.00 0.00 0.00 44 1012.9
20260505230004 81 141 2.0 8.0 0.00 0.00 0.00 43 1012.9
20260505225404 82 145 1.0 6.0 0.00 0.00 0.00 43 1012.9
20260505224505 81 153 2.0 8.0 0.00 0.00 0.00 42 1013.0
20260505223605 82 142 2.0 9.0 0.00 0.00 0.00 42 1012.9
20260505222726 82 177 2.0 8.0 0.00 0.00 0.00 42 1013.1
20260505221805 81 153 2.0 8.0 0.00 0.00 0.00 44 1013.0
20260505220905 81 155 3.0 10.0 0.00 0.00 0.00 42 1013.1
20260505220004 82 133 2.0 7.0 0.00 0.00 0.00 42 1012.9
20260505215404 81 126 1.0 5.0 0.00 0.00 0.00 43 1013.0
20260505214505 82 149 3.0 8.0 0.00 0.00 0.00 41 1013.2
20260505213605 82 137 4.0 10.0 0.00 0.00 0.00 43 1013.1
20260505212705 81 183 4.0 11.0 0.00 0.00 0.00 42 1013.2
20260505211805 81 273 4.0 12.0 0.00 0.00 0.00 43 1013.1
20260505210904 81 263 4.0 13.0 0.00 0.00 0.00 43 1013.2
20260505210025 81 121 3.0 9.0 0.00 0.00 0.00 43 1013.4
20260505205404 81 132 2.0 6.0 0.00 0.00 0.00 45 1013.4
20260505204528 80 145 3.0 10.0 0.00 0.00 0.00 44 1013.4
20260505203604 81 121 2.0 7.0 0.00 0.00 0.00 44 1013.4
20260505202705 81 182 3.0 9.0 0.00 0.00 0.00 43 1013.7
20260505201805 82 154 2.0 10.0 0.00 0.00 0.00 40 1013.8
20260505200907 82 120 3.0 9.0 0.00 0.00 0.00 43 1013.9
20260505200004 81 135 3.0 8.0 0.00 0.00 0.00 43 1014.0
20260505195405 80 212 3.0 9.0 0.00 0.00 0.00 44 1014.1
20260505194508 80 270 4.0 13.0 0.00 0.00 0.00 44 1014.2
20260505193604 81 226 3.0 11.0 0.00 0.00 0.00 42 1014.4
20260505192705 81 208 3.0 11.0 0.00 0.00 0.00 45 1014.4
20260505191831 80 280 4.0 11.0 0.00 0.00 0.00 44 1014.6
20260505190904 80 263 4.0 13.0 0.00 0.00 0.00 42 1014.7
20260505190004 80 268 4.0 17.0 0.00 0.00 0.00 40 1014.9
20260505185404 80 265 4.0 17.0 0.00 0.00 0.00 40 1014.8
20260505184553 80 155 3.0 10.0 0.00 0.00 0.00 40 1014.9
20260505183625 80 162 4.0 12.0 0.00 0.00 0.00 41 1015.1
20260505182704 80 246 4.0 11.0 0.00 0.00 0.00 41 1015.5
20260505181805 80 216 3.0 12.0 0.00 0.00 0.00 40 1015.6
20260505180904 80 251 4.0 10.0 0.00 0.00 0.00 45 1015.8
20260505180004 79 167 4.0 10.0 0.00 0.00 0.00 42 1015.9
20260505175405 79 207 4.0 10.0 0.00 0.00 0.00 44 1016.0
20260505174520 79 252 2.0 10.0 0.00 0.00 0.00 48 1015.9
20260505173604 79 234 4.0 10.0 0.00 0.00 0.00 49 1015.9
20260505172704 79 193 2.0 9.0 0.00 0.00 0.00 47 1015.8
20260505171812 78 184 3.0 11.0 0.00 0.00 0.00 46 1015.9